Location: Mount Airy
(36.4990°N, 80.6080°W)
Time: 15:26:43
(UTC-04:00)

ISS - Pass Details

Date: 28 June 2018
Orbit: 402 x 408 km, 51.6° (Epoch: 22 October)

Event Time Altitude Azimuth Distance (km) Brightness Sun altitude
Rises 16:07:46 0° 271° (W) 2,338 0.6 52.8°
Enters shadow 16:35:15 -44° 146° (SSE) 9,410 2.6 47.3°
Exits shadow 17:10:51 -63° 355° (N) 11,864 3.2 40.2°
Maximum altitude 05:37:41 15° 128° (SE) 1,226 -1.2 -5.8°
